Lapse_Rate
5.7 5.6 5.5 5.5 5.6 5.6 5.5 5.5 5.6 5.6 5.6 5.6 5.2 5.2 4.7 5.1 4.9 5.3 4.6 4.7 4.6 4.3 3.8 4.0 4.2 4.5 4.3
5.8 5.5 5.7 5.4 5.5 5.7 5.6 5.7 5.7 5.4 5.4 5.4 5.1 4.8 4.8 5.2 5.4 5.1 4.9 4.6 4.1 4.0 4.3 4.3 4.4 4.4 4.4
6.0 5.7 5.9 5.7 5.7 5.9 6.0 5.9 5.5 5.2 5.1 5.3 5.1 4.9 4.5 4.9 5.3 5.2 4.8 4.6 4.5 4.3 4.4 4.6 4.5 4.4 4.6
5.8 6.0 5.9 5.4 5.9 6.3 6.1 5.7 5.2 4.9 4.9 5.1 5.0 4.9 5.0 5.2 5.2 5.0 4.7 4.5 4.4 4.4 4.9 5.0 4.6 4.6 4.5
5.9 6.1 6.0 5.7 6.1 5.6 5.0 5.4 5.4 5.3 5.4 5.2 5.2 5.2 5.1 5.2 5.0 4.8 4.7 4.6 4.6 4.7 4.6 4.8 4.6 4.4 4.5
6.0 6.2 5.8 5.9 5.6 5.5 5.5 5.3 5.1 5.1 5.2 5.2 5.1 5.2 5.1 5.2 5.0 4.9 4.7 4.5 4.7 4.9 4.6 4.6 4.4 4.4 4.6
5.7 5.7 5.5 5.6 5.4 5.0 5.2 4.9 5.0 5.2 5.3 5.2 5.1 5.2 5.3 5.4 5.3 4.9 5.0 5.0 5.0 4.9 4.6 4.6 4.6 4.7 4.9
5.7 5.7 5.7 5.8 5.6 5.2 5.2 5.4 5.4 5.3 5.2 5.3 5.3 5.4 5.4 5.5 5.3 5.1 5.0 5.0 5.0 4.8 4.7 4.7 4.8 5.0 5.0
5.5 5.4 5.6 5.5 5.6 5.5 5.5 5.5 5.5 5.5 5.5 5.5 5.5 5.6 5.5 5.6 5.3 5.2 5.1 5.1 5.0 4.9 4.9 5.1 5.2 5.2 5.0
5.7 5.6 5.5 5.4 5.5 5.2 5.4 5.5 5.4 5.4 5.3 5.4 5.5 5.5 5.6 5.6 5.5 5.4 5.2 5.2 5.1 5.0 5.1 5.2 5.2 5.1 4.9
5.5 5.7 5.6 5.5 5.4 5.6 5.5 5.5 5.4 5.6 5.7 5.5 5.6 5.6 5.7 5.7 5.6 5.3 5.2 5.3 5.2 5.1 5.0 5.1 5.1 4.8 5.1
5.6 5.7 5.8 5.6 5.6 5.7 5.8 5.6 5.7 5.6 5.6 5.6 5.7 5.8 5.8 5.6 5.4 5.2 5.3 5.4 5.2 5.0 5.0 4.9 4.9 4.9 5.1
6.1 6.0 5.9 5.8 5.7 5.8 5.8 5.8 5.6 5.6 5.7 5.7 5.8 5.8 5.7 5.5 5.5 5.4 5.4 5.0 4.9 4.7 4.5 4.4 4.5 4.7 4.9
6.0 5.9 5.9 6.1 5.9 5.9 5.7 5.6 5.5 5.6 5.7 5.7 5.6 5.5 5.4 5.4 5.4 5.3 5.2 5.0 4.9 4.7 4.6 4.6 4.6 4.4 4.8
5.7 5.7 5.8 6.0 5.9 5.8 5.9 5.7 5.7 5.6 5.5 5.3 5.4 5.4 5.4 5.4 5.3 5.4 5.2 5.0 4.9 4.9 4.9 5.0 4.8 4.5 4.9
5.8 6.1 5.8 5.7 6.0 5.8 5.6 5.6 5.5 5.4 5.4 5.3 5.4 5.3 5.3 5.4 5.6 5.5 5.4 5.3 5.1 4.9 4.8 4.8 5.0 4.8 5.2
5.6 6.1 5.9 5.8 5.9 5.9 5.7 5.6 5.4 5.4 5.4 5.5 5.5 5.6 5.7 5.7 5.7 5.5 5.5 5.3 5.0 4.8 4.8 5.0 5.5 5.4 5.4
Wind_Speed
1 3 4 5 10 16 18 17 16 14 12 17 16 14 12 11 9 8 8 7 7 8 10 10 11 9 10
3 3 4 6 7 8 11 15 16 14 17 16 15 13 12 12 11 9 8 7 7 8 9 11 11 9 12
3 1 1 2 2 3 4 4 11 13 17 16 14 13 13 13 11 10 9 8 8 7 10 11 10 10 13
3 3 2 1 2 2 2 1 2 9 11 13 14 14 14 14 13 11 10 9 9 9 10 10 10 12 14
3 3 3 3 5 3 3 2 1 3 2 6 11 13 14 12 13 12 10 11 11 10 12 11 11 13 16
4 4 6 4 3 4 3 3 2 10 4 6 11 6 13 12 11 10 10 12 12 11 12 11 13 16 17
8 11 7 8 7 6 5 4 3 2 6 4 5 3 11 11 9 10 12 12 11 10 10 11 13 14 18
7 6 5 10 11 7 7 5 3 3 5 3 2 3 3 7 7 10 11 11 8 7 8 11 14 15 17
11 12 14 17 16 8 5 6 2 2 4 3 2 2 1 1 6 8 10 7 5 5 9 11 12 14 17
4 7 9 12 19 11 8 8 3 2 4 4 3 3 1 0 2 3 3 4 3 6 8 10 11 15 17
4 3 4 4 4 7 10 6 3 2 5 3 2 2 1 1 1 2 3 4 6 9 8 9 15 16 12
5 4 5 4 3 8 9 10 9 3 15 8 3 3 2 1 1 2 1 5 5 6 11 15 15 17 19
4 2 3 4 9 8 14 17 18 15 10 3 4 3 2 2 1 1 2 1 6 4 9 10 11 12 8
4 5 5 4 4 4 4 3 4 3 10 9 10 6 2 2 3 2 2 2 1 5 9 13 12 13 13
5 5 5 5 3 3 3 2 2 3 2 3 7 5 2 4 0 2 1 2 2 3 3 6 8 11 13
5 5 6 5 5 2 3 2 3 2 2 1 2 3 3 2 6 1 2 2 2 3 1 2 5 13 14
5 5 5 5 7 5 3 2 2 2 1 1 2 2 2 1 2 6 2 2 2 3 3 3 4 11 17
Wind_Direction
180 174 177 185 195 213 216 218 219 219 200 175 170 177 192 202 220 224 244 263 279 290 301 305 305 310 315
167 185 192 214 193 180 199 214 216 212 182 176 181 188 198 214 224 235 247 265 273 287 297 303 304 310 308
164 165 132 164 125 127 164 186 218 211 191 189 192 198 211 223 229 239 250 261 266 285 296 297 299 297 303
167 152 135 219 106 146 171 138 158 198 205 204 203 208 223 229 232 240 247 251 263 276 287 288 290 297 303
164 152 161 176 192 174 165 130 152 170 183 216 211 216 219 231 234 232 245 251 265 275 292 287 286 298 305
194 188 196 184 142 168 137 142 208 195 192 229 206 215 224 228 234 241 255 259 260 273 289 282 290 302 304
198 211 185 179 156 165 175 176 175 149 176 232 197 221 225 233 238 243 251 251 263 270 276 288 294 302 303
205 195 185 172 182 190 175 122 76 112 170 205 166 213 188 231 231 238 242 256 249 260 285 297 303 305 299
204 183 171 176 153 125 144 151 150 175 186 162 170 156 176 239 238 248 249 220 218 270 302 307 303 303 300
117 141 149 164 165 168 156 173 123 140 194 158 152 152 273 270 225 203 186 210 253 305 308 299 300 304 293
119 105 96 101 124 150 170 165 136 104 174 118 134 122 126 224 258 226 239 271 295 308 302 301 309 304 293
129 125 120 112 81 81 101 97 75 122 159 133 126 148 134 53 288 344 309 292 297 291 304 310 303 301 298
136 103 90 107 109 91 83 82 74 69 94 90 126 117 111 141 171 298 342 293 294 283 302 292 291 296 303
121 109 118 120 114 102 105 94 82 68 68 94 118 124 122 149 149 234 197 268 295 296 298 298 294 280 276
139 135 135 132 114 105 108 88 105 145 115 42 81 78 110 152 230 237 262 280 260 269 305 311 303 285 288
146 155 154 150 133 120 120 125 133 135 115 104 49 32 2 312 217 217 237 229 254 278 239 289 298 313 308
161 158 150 147 148 147 130 117 113 119 98 97 91 99 72 235 271 230 202 260 287 295 216 197 260 292 305